Time,TemperatureF,DewpointF,PressureIn,WindDirection,WindDirectionDegrees,WindSpeedMPH,WindSpeedGustMPH,Humidity,HourlyPrecipIn,Conditions,Clouds,dailyrainin,SoftwareType,DateUTC
2013-09-12 00:00:00,75.1,38.8,29.67,ESE,105,0.0,2.0,27,0.00,CLR,,0.00,WeatherDisplay:10.37,2013-09-12 07:00:00,
2013-09-12 00:10:00,74.9,37.7,29.67,ESE,105,0.0,3.0,26,0.00,CLR,,0.00,WeatherDisplay:10.37,2013-09-12 07:10:00,
2013-09-12 00:20:00,74.9,38.7,29.67,ESE,105,0.0,3.0,27,0.00,CLR,,0.00,WeatherDisplay:10.37,2013-09-12 07:20:00,
2013-09-12 00:25:00,74.9,38.7,29.67,ESE,105,1.0,3.0,27,0.00,CLR,,0.00,WeatherDisplay:10.37,2013-09-12 07:25:00,
2013-09-12 00:30:00,74.6,38.4,29.66,ESE,105,2.0,4.0,27,0.00,CLR,,0.00,WeatherDisplay:10.37,2013-09-12 07:30:00,
2013-09-12 00:40:00,74.9,38.7,29.66,ESE,105,0.0,5.0,27,0.00,CLR,,0.00,WeatherDisplay:10.37,2013-09-12 07:40:00,
2013-09-12 00:45:00,74.9,38.7,29.66,ESE,105,0.0,1.0,27,0.00,CLR,,0.00,WeatherDisplay:10.37,2013-09-12 07:45:00,
2013-09-12 00:50:00,74.7,38.5,29.66,ESE,105,0.0,0.0,27,0.00,CLR,,0.00,WeatherDisplay:10.37,2013-09-12 07:50:00,
2013-09-12 00:55:00,74.6,38.4,29.66,ESE,105,0.0,0.0,27,0.00,CLR,,0.00,WeatherDisplay:10.37,2013-09-12 07:55:00,
2013-09-12 01:00:00,74.4,38.2,29.66,ESE,105,0.0,2.0,27,0.00,CLR,,0.00,WeatherDisplay:10.37,2013-09-12 08:00:00,
2013-09-12 01:10:00,73.7,38.6,29.66,ESE,105,0.0,2.0,28,0.00,CLR,,0.00,WeatherDisplay:10.37,2013-09-12 08:10:00,
2013-09-12 01:15:00,73.9,38.7,29.66,ESE,105,0.0,2.0,28,0.00,CLR,,0.00,WeatherDisplay:10.37,2013-09-12 08:15:00,
2013-09-12 01:20:00,74.0,38.8,29.66,ESE,105,0.0,2.0,28,0.00,CLR,,0.00,WeatherDisplay:10.37,2013-09-12 08:20:00,
2013-09-12 01:30:00,73.9,37.8,29.66,ESE,105,0.0,1.0,27,0.00,CLR,,0.00,WeatherDisplay:10.37,2013-09-12 08:30:00,
2013-09-12 01:40:00,73.5,38.4,29.66,ESE,105,0.0,1.0,28,0.00,CLR,,0.00,WeatherDisplay:10.37,2013-09-12 08:40:00,
2013-09-12 01:45:00,73.5,38.4,29.66,ESE,105,0.0,0.0,28,0.00,CLR,,0.00,WeatherDisplay:10.37,2013-09-12 08:45:00,
2013-09-12 01:50:00,73.2,38.1,29.66,ESE,105,2.0,5.0,28,0.00,CLR,,0.00,WeatherDisplay:10.37,2013-09-12 08:50:00,
2013-09-12 02:00:00,73.5,38.4,29.66,ESE,105,0.0,2.0,28,0.00,CLR,,0.00,WeatherDisplay:10.37,2013-09-12 09:00:00,
2013-09-12 02:10:00,73.3,38.2,29.66,ESE,105,1.0,3.0,28,0.00,CLR,,0.00,WeatherDisplay:10.37,2013-09-12 09:10:00,
2013-09-12 02:20:00,72.8,38.7,29.65,ESE,105,0.0,2.0,29,0.00,CLR,,0.00,WeatherDisplay:10.37,2013-09-12 09:20:00,
2013-09-12 02:30:00,71.8,36.9,29.65,ESE,108,5.0,6.0,28,0.00,CLR,,0.00,WeatherDisplay:10.37,2013-09-12 09:30:00,
2013-09-12 02:40:00,70.3,36.5,29.66,ESE,111,2.0,4.0,29,0.00,CLR,,0.00,WeatherDisplay:10.37,2013-09-12 09:40:00,
2013-09-12 02:45:00,69.7,36.9,29.66,ESE,111,3.0,4.0,30,0.00,CLR,,0.00,WeatherDisplay:10.37,2013-09-12 09:45:00,
2013-09-12 02:50:00,69.3,37.3,29.66,ESE,111,3.0,5.0,31,0.00,CLR,,0.00,WeatherDisplay:10.37,2013-09-12 09:50:00,
2013-09-12 02:55:00,68.9,37.0,29.66,ESE,111,1.0,3.0,31,0.00,CLR,,0.00,WeatherDisplay:10.37,2013-09-12 09:55:00,
2013-09-12 03:00:00,68.8,37.7,29.66,ESE,111,0.0,3.0,32,0.00,CLR,,0.00,WeatherDisplay:10.37,2013-09-12 10:00:00,
2013-09-12 03:10:00,68.9,38.6,29.66,ESE,111,0.0,2.0,33,0.00,CLR,,0.00,WeatherDisplay:10.37,2013-09-12 10:10:00,
2013-09-12 03:15:00,68.9,37.8,29.66,ESE,111,0.0,2.0,32,0.00,CLR,,0.00,WeatherDisplay:10.37,2013-09-12 10:15:00,
2013-09-12 03:20:00,69.1,37.2,29.66,ESE,111,0.0,3.0,31,0.00,CLR,,0.00,WeatherDisplay:10.37,2013-09-12 10:20:00,
2013-09-12 03:25:00,69.2,38.9,29.66,ESE,111,1.0,2.0,33,0.00,CLR,,0.00,WeatherDisplay:10.37,2013-09-12 10:25:00,
2013-09-12 03:30:00,69.9,39.5,29.66,ESE,111,2.0,4.0,33,0.00,CLR,,0.00,WeatherDisplay:10.37,2013-09-12 10:30:00,
2013-09-12 03:40:00,69.6,38.4,29.66,ESE,111,2.0,3.0,32,0.00,CLR,,0.00,WeatherDisplay:10.37,2013-09-12 10:40:00,
2013-09-12 03:45:00,69.4,39.0,29.66,ESE,111,1.0,3.0,33,0.00,CLR,,0.00,WeatherDisplay:10.37,2013-09-12 10:45:00,
2013-09-12 03:50:00,69.3,39.7,29.66,ESE,111,0.0,1.0,34,0.00,CLR,,0.00,WeatherDisplay:10.37,2013-09-12 10:50:00,
2013-09-12 04:00:00,69.1,40.3,29.66,ESE,111,0.0,0.0,35,0.00,CLR,,0.00,WeatherDisplay:10.37,2013-09-12 11:00:00,
2013-09-12 04:10:00,68.5,38.3,29.66,ESE,111,0.0,0.0,33,0.00,CLR,,0.00,WeatherDisplay:10.37,2013-09-12 11:10:00,
2013-09-12 04:15:00,68.3,38.1,29.67,ESE,111,0.0,0.0,33,0.00,CLR,,0.00,WeatherDisplay:10.37,2013-09-12 11:15:00,
2013-09-12 04:20:00,67.9,40.7,29.67,ESE,111,1.0,3.0,37,0.00,CLR,,0.00,WeatherDisplay:10.37,2013-09-12 11:20:00,
2013-09-12 04:30:00,68.1,40.1,29.67,ESE,111,0.0,0.0,36,0.00,CLR,,0.00,WeatherDisplay:10.37,2013-09-12 11:30:00,
2013-09-12 04:40:00,67.6,39.0,29.67,ESE,111,0.0,0.0,35,0.00,CLR,,0.00,WeatherDisplay:10.37,2013-09-12 11:40:00,
2013-09-12 04:50:00,66.9,38.3,29.67,ESE,111,0.0,0.0,35,0.00,CLR,,0.00,WeatherDisplay:10.37,2013-09-12 11:50:00,
2013-09-12 04:55:00,66.3,37.8,29.68,ESE,111,2.0,4.0,35,0.00,CLR,,0.00,WeatherDisplay:10.37,2013-09-12 11:55:00,
2013-09-12 05:00:00,65.8,38.8,29.68,ESE,111,1.0,2.0,37,0.00,CLR,,0.00,WeatherDisplay:10.37,2013-09-12 12:00:00,
2013-09-12 05:10:00,65.2,36.8,29.68,ESE,111,0.0,0.0,35,0.00,CLR,,0.00,WeatherDisplay:10.37,2013-09-12 12:10:00,
2013-09-12 05:15:00,64.8,37.2,29.68,ESE,111,0.0,0.0,36,0.00,CLR,,0.00,WeatherDisplay:10.37,2013-09-12 12:15:00,
2013-09-12 05:20:00,64.7,37.1,29.68,ESE,111,0.0,0.0,36,0.00,CLR,,0.00,WeatherDisplay:10.37,2013-09-12 12:20:00,
2013-09-12 05:25:00,64.5,36.9,29.68,ESE,111,2.0,3.0,36,0.00,CLR,,0.00,WeatherDisplay:10.37,2013-09-12 12:25:00,
2013-09-12 05:30:00,64.7,37.1,29.69,ESE,111,2.0,3.0,36,0.00,CLR,,0.00,WeatherDisplay:10.37,2013-09-12 12:30:00,
2013-09-12 05:40:00,64.3,36.7,29.69,ESE,111,3.0,4.0,36,0.00,CLR,,0.00,WeatherDisplay:10.37,2013-09-12 12:40:00,
2013-09-12 05:45:00,64.3,38.1,29.69,ESE,111,3.0,4.0,38,0.00,CLR,,0.00,WeatherDisplay:10.37,2013-09-12 12:45:00,
2013-09-12 05:50:00,65.0,38.7,29.69,ESE,111,2.0,4.0,38,0.00,CLR,,0.00,WeatherDisplay:10.37,2013-09-12 12:50:00,
2013-09-12 05:55:00,66.3,39.9,29.69,ESE,111,3.0,5.0,38,0.00,CLR,,0.00,WeatherDisplay:10.37,2013-09-12 12:55:00,
2013-09-12 06:00:00,67.1,39.9,29.69,ESE,111,3.0,5.0,37,0.00,CLR,,0.00,WeatherDisplay:10.37,2013-09-12 13:00:00,
2013-09-12 06:10:00,66.1,38.3,29.69,ESE,111,2.0,4.0,36,0.00,CLR,,0.00,WeatherDisplay:10.37,2013-09-12 13:10:00,
2013-09-12 06:15:00,65.1,38.1,29.70,ESE,111,2.0,4.0,37,0.00,CLR,,0.00,WeatherDisplay:10.37,2013-09-12 13:15:00,
2013-09-12 06:20:00,64.5,38.3,29.71,ESE,111,3.0,4.0,38,0.00,CLR,,0.00,WeatherDisplay:10.37,2013-09-12 13:20:00,
2013-09-12 06:30:00,64.7,39.8,29.72,ESE,111,2.0,3.0,40,0.00,CLR,,0.00,WeatherDisplay:10.37,2013-09-12 13:30:00,
2013-09-12 06:40:00,65.6,40.0,29.72,ESE,111,2.0,3.0,39,0.00,CLR,,0.00,WeatherDisplay:10.37,2013-09-12 13:40:00,
2013-09-12 06:50:00,65.2,38.9,29.72,ESE,111,1.0,3.0,38,0.00,CLR,,0.00,WeatherDisplay:10.37,2013-09-12 13:50:00,
2013-09-12 06:55:00,65.3,40.3,29.73,ESE,111,2.0,3.0,40,0.00,CLR,,0.00,WeatherDisplay:10.37,2013-09-12 13:55:00,
2013-09-12 07:00:00,65.6,40.0,29.73,ESE,111,0.0,2.0,39,0.00,CLR,,0.00,WeatherDisplay:10.37,2013-09-12 14:00:00,
2013-09-12 07:10:00,66.0,41.0,29.73,ESE,111,0.0,0.0,40,0.00,CLR,,0.00,WeatherDisplay:10.37,2013-09-12 14:10:00,
2013-09-12 07:15:00,66.1,41.7,29.73,ESE,111,0.0,0.0,41,0.00,CLR,,0.00,WeatherDisplay:10.37,2013-09-12 14:15:00,
2013-09-12 07:20:00,66.0,42.2,29.73,ESE,111,0.0,0.0,42,0.00,CLR,,0.00,WeatherDisplay:10.37,2013-09-12 14:20:00,
2013-09-12 07:25:00,66.0,40.3,29.74,ESE,111,0.0,0.0,39,0.00,CLR,,0.00,WeatherDisplay:10.37,2013-09-12 14:25:00,
2013-09-12 07:30:00,66.4,40.0,29.75,ESE,111,1.0,3.0,38,0.00,CLR,,0.00,WeatherDisplay:10.37,2013-09-12 14:30:00,
2013-09-12 07:40:00,68.1,40.8,29.75,ESE,111,0.0,0.0,37,0.00,CLR,,0.00,WeatherDisplay:10.37,2013-09-12 14:40:00,
2013-09-12 07:50:00,69.1,41.0,29.75,ESE,111,0.0,0.0,36,0.00,CLR,,0.00,WeatherDisplay:10.37,2013-09-12 14:50:00,
2013-09-12 07:55:00,69.6,41.5,29.75,ESE,111,0.0,0.0,36,0.00,CLR,,0.00,WeatherDisplay:10.37,2013-09-12 14:55:00,
2013-09-12 08:00:00,70.0,41.0,29.75,ESE,111,0.0,0.0,35,0.00,CLR,,0.00,WeatherDisplay:10.37,2013-09-12 15:00:00,
2013-09-12 08:10:00,70.9,41.1,29.75,ESE,111,0.0,0.0,34,0.00,CLR,,0.00,WeatherDisplay:10.37,2013-09-12 15:10:00,
2013-09-12 08:15:00,71.6,40.9,29.75,ESE,111,0.0,3.0,33,0.00,CLR,,0.00,WeatherDisplay:10.37,2013-09-12 15:15:00,
2013-09-12 08:20:00,72.0,40.5,29.75,ESE,111,2.0,4.0,32,0.00,CLR,,0.00,WeatherDisplay:10.37,2013-09-12 15:20:00,
2013-09-12 08:30:00,72.0,40.5,29.75,ESE,107,2.0,4.0,32,0.00,CLR,,0.00,WeatherDisplay:10.37,2013-09-12 15:30:00,
2013-09-12 08:40:00,72.1,40.6,29.76,ESE,107,1.0,3.0,32,0.00,CLR,,0.00,WeatherDisplay:10.37,2013-09-12 15:40:00,
2013-09-12 08:50:00,73.0,39.7,29.76,ESE,107,0.0,3.0,30,0.00,CLR,,0.00,WeatherDisplay:10.37,2013-09-12 15:50:00,
2013-09-12 09:00:00,74.0,39.7,29.76,ESE,107,0.0,1.0,29,0.00,CLR,,0.00,WeatherDisplay:10.37,2013-09-12 16:00:00,
2013-09-12 09:10:00,75.4,40.1,29.76,ESE,107,0.0,2.0,28,0.00,CLR,,0.00,WeatherDisplay:10.37,2013-09-12 16:10:00,
2013-09-12 09:20:00,76.3,40.8,29.76,ESE,107,0.0,0.0,28,0.00,CLR,,0.00,WeatherDisplay:10.37,2013-09-12 16:20:00,
2013-09-12 09:30:00,77.2,40.7,29.76,ESE,107,2.0,4.0,27,0.00,CLR,,0.00,WeatherDisplay:10.37,2013-09-12 16:30:00,
2013-09-12 09:40:00,78.1,41.4,29.76,ESE,107,1.0,3.0,27,0.00,CLR,,0.00,WeatherDisplay:10.37,2013-09-12 16:40:00,
2013-09-12 09:45:00,78.7,41.0,29.75,ESE,107,0.0,1.0,26,0.00,CLR,,0.00,WeatherDisplay:10.37,2013-09-12 16:45:00,
2013-09-12 09:50:00,79.4,41.5,29.76,ESE,107,0.0,1.0,26,0.00,CLR,,0.00,WeatherDisplay:10.37,2013-09-12 16:50:00,
2013-09-12 10:00:00,79.8,40.8,29.75,ESE,104,0.0,2.0,25,0.00,CLR,,0.00,WeatherDisplay:10.37,2013-09-12 17:00:00,
2013-09-12 10:10:00,81.6,40.2,29.75,ESE,105,2.0,6.0,23,0.00,CLR,,0.00,WeatherDisplay:10.37,2013-09-12 17:10:00,
2013-09-12 10:15:00,82.1,40.6,29.75,ESE,105,1.0,4.0,23,0.00,CLR,,0.00,WeatherDisplay:10.37,2013-09-12 17:15:00,
2013-09-12 10:20:00,82.4,40.9,29.75,ESE,105,0.0,2.0,23,0.00,CLR,,0.00,WeatherDisplay:10.37,2013-09-12 17:20:00,
2013-09-12 10:30:00,83.2,41.5,29.75,East,99,2.0,5.0,23,0.00,CLR,,0.00,WeatherDisplay:10.37,2013-09-12 17:30:00,
2013-09-12 10:40:00,83.6,41.9,29.75,East,97,2.0,5.0,23,0.00,CLR,,0.00,WeatherDisplay:10.37,2013-09-12 17:40:00,
2013-09-12 10:50:00,84.7,41.6,29.75,East,101,1.0,9.0,22,0.00,CLR,,0.00,WeatherDisplay:10.37,2013-09-12 17:50:00,
2013-09-12 10:55:00,85.2,42.1,29.74,ESE,105,1.0,4.0,22,0.00,CLR,,0.00,WeatherDisplay:10.37,2013-09-12 17:55:00,
2013-09-12 11:00:00,85.3,42.1,29.74,East,94,2.0,7.0,22,0.00,CLR,,0.00,WeatherDisplay:10.37,2013-09-12 18:00:00,
2013-09-12 11:10:00,86.1,41.6,29.73,East,91,3.0,9.0,21,0.00,CLR,,0.00,WeatherDisplay:10.37,2013-09-12 18:10:00,
2013-09-12 11:15:00,85.9,41.4,29.73,East,90,2.0,10.0,21,0.00,CLR,,0.00,WeatherDisplay:10.37,2013-09-12 18:15:00,
2013-09-12 11:20:00,86.1,41.6,29.73,East,90,5.0,10.0,21,0.00,CLR,,0.00,WeatherDisplay:10.37,2013-09-12 18:20:00,
2013-09-12 11:30:00,86.1,41.6,29.73,East,88,5.0,12.0,21,0.00,CLR,,0.00,WeatherDisplay:10.37,2013-09-12 18:30:00,
2013-09-12 11:40:00,86.4,41.8,29.72,East,84,5.0,9.0,21,0.00,CLR,,0.00,WeatherDisplay:10.37,2013-09-12 18:40:00,
2013-09-12 11:45:00,87.2,41.2,29.72,ESE,119,0.0,9.0,20,0.00,CLR,,0.00,WeatherDisplay:10.37,2013-09-12 18:45:00,
2013-09-12 11:50:00,87.6,41.6,29.71,ESE,113,1.0,5.0,20,0.00,CLR,,0.00,WeatherDisplay:10.37,2013-09-12 18:50:00,
2013-09-12 11:55:00,87.7,41.7,29.71,East,93,5.0,8.0,20,0.00,CLR,,0.00,WeatherDisplay:10.37,2013-09-12 18:55:00,
2013-09-12 12:00:00,88.2,42.0,29.71,East,100,1.0,13.0,20,0.00,CLR,,0.00,WeatherDisplay:10.37,2013-09-12 19:00:00,
2013-09-12 12:10:00,87.8,41.7,29.71,East,82,5.0,9.0,20,0.00,CLR,,0.00,WeatherDisplay:10.37,2013-09-12 19:10:00,
2013-09-12 12:15:00,87.9,41.8,29.71,East,90,1.0,6.0,20,0.00,CLR,,0.00,WeatherDisplay:10.37,2013-09-12 19:15:00,
2013-09-12 12:20:00,88.7,42.5,29.70,ESE,103,3.0,5.0,20,0.00,CLR,,0.00,WeatherDisplay:10.37,2013-09-12 19:20:00,
2013-09-12 12:25:00,89.4,41.7,29.69,ESE,108,1.0,3.0,19,0.00,CLR,,0.00,WeatherDisplay:10.37,2013-09-12 19:25:00,
2013-09-12 12:30:00,89.7,40.6,29.69,East,95,2.0,12.0,18,0.00,CLR,,0.00,WeatherDisplay:10.37,2013-09-12 19:30:00,
2013-09-12 12:40:00,89.4,40.4,29.69,ESE,105,1.0,3.0,18,0.00,CLR,,0.00,WeatherDisplay:10.37,2013-09-12 19:40:00,
2013-09-12 12:45:00,89.2,40.2,29.69,ESE,115,2.0,5.0,18,0.00,CLR,,0.00,WeatherDisplay:10.37,2013-09-12 19:45:00,
2013-09-12 12:50:00,88.9,41.3,29.69,WSW,241,0.0,6.0,19,0.00,CLR,,0.00,WeatherDisplay:10.37,2013-09-12 19:50:00,
2013-09-12 12:55:00,90.1,39.4,29.68,West,266,1.0,4.0,17,0.00,CLR,,0.00,WeatherDisplay:10.37,2013-09-12 19:55:00,
2013-09-12 13:00:00,90.3,39.6,29.68,ENE,68,1.0,8.0,17,0.00,CLR,,0.00,WeatherDisplay:10.37,2013-09-12 20:00:00,
2013-09-12 13:10:00,88.8,39.8,29.68,NNW,334,3.0,9.0,18,0.00,CLR,,0.00,WeatherDisplay:10.37,2013-09-12 20:10:00,
2013-09-12 13:15:00,89.4,38.8,29.68,NW,325,0.0,3.0,17,0.00,CLR,,0.00,WeatherDisplay:10.37,2013-09-12 20:15:00,
2013-09-12 13:20:00,89.5,38.9,29.67,NW,325,2.0,5.0,17,0.00,CLR,,0.00,WeatherDisplay:10.37,2013-09-12 20:20:00,
2013-09-12 13:25:00,89.5,38.9,29.67,NW,325,1.0,5.0,17,0.00,CLR,,0.00,WeatherDisplay:10.37,2013-09-12 20:25:00,
2013-09-12 13:30:00,89.6,39.0,29.68,NW,323,0.0,4.0,17,0.00,CLR,,0.00,WeatherDisplay:10.37,2013-09-12 20:30:00,
2013-09-12 13:40:00,92.1,39.4,29.67,West,273,2.0,5.0,16,0.00,CLR,,0.00,WeatherDisplay:10.37,2013-09-12 20:40:00,
2013-09-12 13:50:00,90.4,38.1,29.66,SW,218,2.0,7.0,16,0.00,CLR,,0.00,WeatherDisplay:10.37,2013-09-12 20:50:00,
2013-09-12 13:55:00,91.0,38.6,29.66,SW,224,3.0,6.0,16,0.00,CLR,,0.00,WeatherDisplay:10.37,2013-09-12 20:55:00,
2013-09-12 14:00:00,90.9,38.5,29.66,SW,225,3.0,5.0,16,0.00,CLR,,0.00,WeatherDisplay:10.37,2013-09-12 21:00:00,
2013-09-12 14:10:00,91.0,38.6,29.65,SW,229,2.0,6.0,16,0.00,CLR,,0.00,WeatherDisplay:10.37,2013-09-12 21:10:00,
2013-09-12 14:15:00,91.7,39.2,29.65,WSW,254,6.0,12.0,16,0.00,CLR,,0.00,WeatherDisplay:10.37,2013-09-12 21:15:00,
2013-09-12 14:20:00,91.3,38.8,29.65,WNW,293,1.0,9.0,16,0.00,CLR,,0.00,WeatherDisplay:10.37,2013-09-12 21:20:00,
2013-09-12 14:25:00,91.4,38.9,29.65,WNW,300,2.0,10.0,16,0.00,CLR,,0.00,WeatherDisplay:10.37,2013-09-12 21:25:00,
2013-09-12 14:30:00,91.6,39.1,29.65,WNW,303,3.0,6.0,16,0.00,CLR,,0.00,WeatherDisplay:10.37,2013-09-12 21:30:00,
2013-09-12 14:40:00,92.5,38.1,29.64,North,349,3.0,7.0,15,0.00,CLR,,0.00,WeatherDisplay:10.37,2013-09-12 21:40:00,
2013-09-12 14:45:00,91.8,39.2,29.65,NW,321,0.0,6.0,16,0.00,CLR,,0.00,WeatherDisplay:10.37,2013-09-12 21:45:00,
2013-09-12 14:50:00,92.5,38.1,29.64,NW,313,2.0,4.0,15,0.00,CLR,,0.00,WeatherDisplay:10.37,2013-09-12 21:50:00,
2013-09-12 14:55:00,92.3,39.6,29.64,NW,313,2.0,4.0,16,0.00,CLR,,0.00,WeatherDisplay:10.37,2013-09-12 21:55:00,
2013-09-12 15:00:00,92.5,38.1,29.63,NW,310,2.0,6.0,15,0.00,CLR,,0.00,WeatherDisplay:10.37,2013-09-12 22:00:00,
2013-09-12 15:10:00,94.1,39.4,29.63,WNW,298,0.0,4.0,15,0.00,CLR,,0.00,WeatherDisplay:10.37,2013-09-12 22:10:00,
2013-09-12 15:20:00,94.2,37.7,29.63,NW,322,2.0,4.0,14,0.00,CLR,,0.00,WeatherDisplay:10.37,2013-09-12 22:20:00,
2013-09-12 15:25:00,94.0,39.3,29.62,NW,325,2.0,3.0,15,0.00,CLR,,0.00,WeatherDisplay:10.37,2013-09-12 22:25:00,
2013-09-12 15:30:00,94.1,39.4,29.62,NNW,337,1.0,8.0,15,0.00,CLR,,0.00,WeatherDisplay:10.37,2013-09-12 22:30:00,
2013-09-12 15:40:00,94.9,38.3,29.61,SSE,149,3.0,6.0,14,0.00,CLR,,0.00,WeatherDisplay:10.37,2013-09-12 22:40:00,
2013-09-12 15:50:00,95.9,40.8,29.61,SE,144,3.0,9.0,15,0.00,CLR,,0.00,WeatherDisplay:10.37,2013-09-12 22:50:00,
2013-09-12 16:00:00,95.6,36.9,29.61,SSE,154,2.0,9.0,13,0.00,CLR,,0.00,WeatherDisplay:10.37,2013-09-12 23:00:00,
2013-09-12 16:10:00,94.7,38.1,29.60,ESE,117,5.0,12.0,14,0.00,CLR,,0.00,WeatherDisplay:10.37,2013-09-12 23:10:00,
2013-09-12 16:15:00,94.7,38.1,29.60,ESE,121,5.0,9.0,14,0.00,CLR,,0.00,WeatherDisplay:10.37,2013-09-12 23:15:00,
2013-09-12 16:20:00,94.9,38.3,29.60,SE,124,1.0,5.0,14,0.00,CLR,,0.00,WeatherDisplay:10.37,2013-09-12 23:20:00,
2013-09-12 16:30:00,94.9,38.2,29.60,East,100,2.0,7.0,14,0.00,CLR,,0.00,WeatherDisplay:10.37,2013-09-12 23:30:00,
2013-09-12 16:40:00,94.7,38.1,29.60,East,98,2.0,5.0,14,0.00,CLR,,0.00,WeatherDisplay:10.37,2013-09-12 23:40:00,
2013-09-12 16:50:00,94.3,37.8,29.60,East,95,3.0,5.0,14,0.00,CLR,,0.00,WeatherDisplay:10.37,2013-09-12 23:50:00,
2013-09-12 16:55:00,94.5,37.9,29.60,ESE,118,5.0,12.0,14,0.00,CLR,,0.00,WeatherDisplay:10.37,2013-09-12 23:55:00,
2013-09-12 17:00:00,94.5,37.9,29.60,ESE,122,2.0,7.0,14,0.00,CLR,,0.00,WeatherDisplay:10.37,2013-09-13 00:00:00,
2013-09-12 17:10:00,94.5,38.0,29.60,SSE,148,5.0,10.0,14,0.00,CLR,,0.00,WeatherDisplay:10.37,2013-09-13 00:10:00,
2013-09-12 17:20:00,93.8,42.4,29.60,SE,141,3.0,12.0,17,0.00,CLR,,0.00,WeatherDisplay:10.37,2013-09-13 00:20:00,
2013-09-12 17:30:00,93.6,39.0,29.60,SE,130,5.0,10.0,15,0.00,CLR,,0.00,WeatherDisplay:10.37,2013-09-13 00:30:00,
2013-09-12 17:40:00,93.4,38.8,29.59,South,179,3.0,10.0,15,0.00,CLR,,0.00,WeatherDisplay:10.37,2013-09-13 00:40:00,
2013-09-12 17:45:00,93.4,38.8,29.59,South,181,7.0,10.0,15,0.00,CLR,,0.00,WeatherDisplay:10.37,2013-09-13 00:45:00,
2013-09-12 17:50:00,93.2,38.7,29.59,SSW,202,5.0,12.0,15,0.00,CLR,,0.00,WeatherDisplay:10.37,2013-09-13 00:50:00,
2013-09-12 18:00:00,93.2,38.7,29.59,South,183,3.0,10.0,15,0.00,CLR,,0.00,WeatherDisplay:10.37,2013-09-13 01:00:00,
2013-09-12 18:10:00,93.2,38.7,29.59,South,173,3.0,7.0,15,0.00,CLR,,0.00,WeatherDisplay:10.37,2013-09-13 01:10:00,
2013-09-12 18:15:00,92.7,38.3,29.59,SSW,192,7.0,13.0,15,0.00,CLR,,0.00,WeatherDisplay:10.37,2013-09-13 01:15:00,
2013-09-12 18:20:00,92.3,38.0,29.59,SSW,199,7.0,13.0,15,0.00,CLR,,0.00,WeatherDisplay:10.37,2013-09-13 01:20:00,
2013-09-12 18:25:00,92.1,37.8,29.59,SSW,206,10.0,15.0,15,0.00,CLR,,0.00,WeatherDisplay:10.37,2013-09-13 01:25:00,
2013-09-12 18:30:00,91.8,37.6,29.59,SSW,206,10.0,15.0,15,0.00,CLR,,0.00,WeatherDisplay:10.37,2013-09-13 01:30:00,
2013-09-12 18:40:00,91.2,37.1,29.59,SSW,207,9.0,14.0,15,0.00,CLR,,0.00,WeatherDisplay:10.37,2013-09-13 01:40:00,
2013-09-12 18:45:00,90.7,38.3,29.59,SW,214,12.0,16.0,16,0.00,CLR,,0.00,WeatherDisplay:10.37,2013-09-13 01:45:00,
2013-09-12 18:50:00,90.3,38.0,29.59,SSW,210,8.0,14.0,16,0.00,CLR,,0.00,WeatherDisplay:10.37,2013-09-13 01:50:00,
2013-09-12 18:55:00,90.1,37.9,29.60,SSW,212,10.0,15.0,16,0.00,CLR,,0.00,WeatherDisplay:10.37,2013-09-13 01:55:00,
2013-09-12 19:00:00,89.9,37.7,29.60,SSW,209,10.0,15.0,16,0.00,CLR,,0.00,WeatherDisplay:10.37,2013-09-13 02:00:00,
2013-09-12 19:10:00,89.0,38.5,29.60,SW,221,7.0,12.0,17,0.00,CLR,,0.00,WeatherDisplay:10.37,2013-09-13 02:10:00,
2013-09-12 19:15:00,88.3,39.4,29.61,SW,233,6.0,7.0,18,0.00,CLR,,0.00,WeatherDisplay:10.37,2013-09-13 02:15:00,
2013-09-12 19:20:00,87.8,39.0,29.61,WSW,238,6.0,10.0,18,0.00,CLR,,0.00,WeatherDisplay:10.37,2013-09-13 02:20:00,
2013-09-12 19:25:00,87.4,40.0,29.61,WSW,241,5.0,9.0,19,0.00,CLR,,0.00,WeatherDisplay:10.37,2013-09-13 02:25:00,
2013-09-12 19:30:00,87.0,39.7,29.60,SW,231,9.0,12.0,19,0.00,CLR,,0.00,WeatherDisplay:10.37,2013-09-13 02:30:00,
2013-09-12 19:40:00,86.2,41.6,29.60,SSW,211,5.0,10.0,21,0.00,CLR,,0.00,WeatherDisplay:10.37,2013-09-13 02:40:00,
2013-09-12 19:45:00,85.7,42.5,29.60,SSW,207,8.0,10.0,22,0.00,CLR,,0.00,WeatherDisplay:10.37,2013-09-13 02:45:00,
2013-09-12 19:50:00,85.3,42.1,29.60,SSW,208,8.0,12.0,22,0.00,CLR,,0.00,WeatherDisplay:10.37,2013-09-13 02:50:00,
2013-09-12 19:55:00,85.3,42.1,29.60,SSW,210,3.0,9.0,22,0.00,CLR,,0.00,WeatherDisplay:10.37,2013-09-13 02:55:00,
2013-09-12 20:00:00,85.1,42.0,29.60,SSW,208,8.0,12.0,22,0.00,CLR,,0.00,WeatherDisplay:10.37,2013-09-13 03:00:00,
2013-09-12 20:10:00,84.9,43.0,29.61,SSW,202,6.0,15.0,23,0.00,CLR,,0.00,WeatherDisplay:10.37,2013-09-13 03:10:00,
2013-09-12 20:15:00,84.4,43.6,29.60,SSW,200,9.0,13.0,24,0.00,CLR,,0.00,WeatherDisplay:10.37,2013-09-13 03:15:00,
2013-09-12 20:20:00,84.1,43.4,29.61,SSW,193,7.0,13.0,24,0.00,CLR,,0.00,WeatherDisplay:10.37,2013-09-13 03:20:00,
2013-09-12 20:30:00,83.6,44.0,29.60,South,178,3.0,9.0,25,0.00,CLR,,0.00,WeatherDisplay:10.37,2013-09-13 03:30:00,
2013-09-12 20:40:00,83.6,44.0,29.60,SSW,208,9.0,14.0,25,0.00,CLR,,0.00,WeatherDisplay:10.37,2013-09-13 03:40:00,
2013-09-12 20:50:00,83.8,44.2,29.60,SW,217,7.0,12.0,25,0.00,CLR,,0.00,WeatherDisplay:10.37,2013-09-13 03:50:00,
2013-09-12 20:55:00,83.6,44.1,29.60,SSW,211,8.0,12.0,25,0.00,CLR,,0.00,WeatherDisplay:10.37,2013-09-13 03:55:00,
2013-09-12 21:00:00,83.4,44.9,29.60,SSW,212,9.0,12.0,26,0.00,CLR,,0.00,WeatherDisplay:10.37,2013-09-13 04:00:00,
2013-09-12 21:05:00,83.4,43.9,29.60,SSW,206,8.0,12.0,25,0.00,CLR,,0.00,WeatherDisplay:10.37,2013-09-13 04:05:00,
2013-09-12 21:10:00,83.2,44.7,29.60,SSW,201,3.0,9.0,26,0.00,CLR,,0.00,WeatherDisplay:10.37,2013-09-13 04:10:00,
2013-09-12 21:15:00,82.9,44.5,29.60,SSW,199,2.0,5.0,26,0.00,CLR,,0.00,WeatherDisplay:10.37,2013-09-13 04:15:00,
2013-09-12 21:20:00,82.6,44.2,29.61,SSW,199,3.0,7.0,26,0.00,CLR,,0.00,WeatherDisplay:10.37,2013-09-13 04:20:00,
2013-09-12 21:30:00,81.8,43.6,29.60,SSW,200,3.0,8.0,26,0.00,CLR,,0.00,WeatherDisplay:10.37,2013-09-13 04:30:00,
2013-09-12 21:40:00,81.6,44.4,29.60,SSW,200,0.0,5.0,27,0.00,CLR,,0.00,WeatherDisplay:10.37,2013-09-13 04:40:00,
2013-09-12 21:45:00,81.2,44.0,29.60,SSW,200,0.0,0.0,27,0.00,CLR,,0.00,WeatherDisplay:10.37,2013-09-13 04:45:00,
2013-09-12 21:50:00,80.9,44.7,29.60,SSW,200,0.0,0.0,28,0.00,CLR,,0.00,WeatherDisplay:10.37,2013-09-13 04:50:00,
2013-09-12 22:00:00,80.0,44.0,29.61,SSW,200,0.0,0.0,28,0.00,CLR,,0.00,WeatherDisplay:10.37,2013-09-13 05:00:00,
2013-09-12 22:10:00,78.8,42.9,29.61,SSW,200,0.0,0.0,28,0.00,CLR,,0.00,WeatherDisplay:10.37,2013-09-13 05:10:00,
2013-09-12 22:15:00,78.3,42.5,29.61,SSW,200,0.0,1.0,28,0.00,CLR,,0.00,WeatherDisplay:10.37,2013-09-13 05:15:00,
2013-09-12 22:20:00,78.1,42.3,29.61,SSW,200,0.0,0.0,28,0.00,CLR,,0.00,WeatherDisplay:10.37,2013-09-13 05:20:00,
2013-09-12 22:25:00,77.9,43.1,29.61,SSW,200,0.0,0.0,29,0.00,CLR,,0.00,WeatherDisplay:10.37,2013-09-13 05:25:00,
2013-09-12 22:30:00,77.6,42.8,29.61,SSW,200,0.0,0.0,29,0.00,CLR,,0.00,WeatherDisplay:10.37,2013-09-13 05:30:00,
2013-09-12 22:40:00,76.8,42.1,29.62,SSW,200,2.0,5.0,29,0.00,CLR,,0.00,WeatherDisplay:10.37,2013-09-13 05:40:00,
2013-09-12 22:50:00,76.5,42.7,29.61,SSW,200,0.0,2.0,30,0.00,CLR,,0.00,WeatherDisplay:10.37,2013-09-13 05:50:00,
2013-09-12 23:00:00,76.1,42.4,29.61,SSW,200,0.0,0.0,30,0.00,CLR,,0.00,WeatherDisplay:10.37,2013-09-13 06:00:00,
2013-09-12 23:10:00,75.6,42.8,29.62,SSW,200,1.0,2.0,31,0.00,CLR,,0.00,WeatherDisplay:10.37,2013-09-13 06:10:00,
2013-09-12 23:15:00,75.3,43.4,29.62,SSW,200,0.0,0.0,32,0.00,CLR,,0.00,WeatherDisplay:10.37,2013-09-13 06:15:00,
2013-09-12 23:20:00,74.9,43.0,29.62,SSW,200,2.0,3.0,32,0.00,CLR,,0.00,WeatherDisplay:10.37,2013-09-13 06:20:00,
2013-09-12 23:25:00,74.6,42.8,29.62,SSW,200,2.0,4.0,32,0.00,CLR,,0.00,WeatherDisplay:10.37,2013-09-13 06:25:00,
2013-09-12 23:30:00,74.9,43.0,29.62,SSW,200,1.0,4.0,32,0.00,CLR,,0.00,WeatherDisplay:10.37,2013-09-13 06:30:00,
2013-09-12 23:40:00,75.1,43.2,29.62,SSW,200,0.0,2.0,32,0.00,CLR,,0.00,WeatherDisplay:10.37,2013-09-13 06:40:00,
2013-09-12 23:45:00,74.9,44.6,29.61,SSW,200,0.0,0.0,34,0.00,CLR,,0.00,WeatherDisplay:10.37,2013-09-13 06:45:00,
2013-09-12 23:50:00,74.7,43.7,29.61,SSW,200,0.0,2.0,33,0.00,CLR,,0.00,WeatherDisplay:10.37,2013-09-13 06:50:00,